Olbia, Italy

5:26 AM CEST on May 28, 2017 (GMT +0200)
Costa Smeralda

Weather History for LIEO - February, 2013

Change the Weather History Date:

Monday, February 4, 2013

  Actual Average Record
Temperature  
Mean Temperature 47 °F -  
Max Temperature 57 °F 57 °F 66 °F (2008)
Min Temperature 37 °F 39 °F 32 °F (2005)
Degree Days  
Heating Degree Days 18    
Moisture  
Dew Point 40 °F    
Average Humidity 76    
Maximum Humidity 88    
Minimum Humidity 54    
Precipitation  
Precipitation 0.00 in 0.09 in - ()
Sea Level Pressure  
Sea Level Pressure 30.12 in    
Wind  
Wind Speed 9 mph ()    
Max Wind Speed 23 mph    
Max Gust Speed 33 mph    
Visibility 6.2 miles    
Events      
Averages and records for this station are not official NWS values.
T = Trace of Precipitation, MM = Missing Value Source: Averaged Metar Reports

Daily Weather History Graph

Daily Weather History Graph

Search for Another Location

Airport or City:

Trip Planner

Search our weather history database for the weather conditions in past years. The results will help you decide how hot, cold, wet, or windy it might be!

Date:

Astronomy

Feb. 04, 2013 Rise Set
Actual Time 7:29 AM CET 5:42 PM CET
Civil Twilight 7:00 AM CET 6:11 PM CET
Nautical Twilight 6:27 AM CET 6:44 PM CET
Astronomical Twilight 5:55 AM CET 7:16 PM CET
Moon 1:46 AM CET (2/4) 11:52 AM CET (2/4)
Length of Visible Light 11h 11m
Length of Day
10h 13m
Last Quarter, 40% of the Moon is Illuminated
Feb 4
Last Quarter
Feb 10
New
Feb 17
First Quarter
Feb 25
Full
Mar 4
Last Quarter

Hourly Weather History & Observations

Time (CET) Temp. Windchill Dew Point Humidity Pressure Visibility Wind Dir Wind Speed Gust Speed Precip Events Conditions
12:20 AM 44.6 °F 41.4 °F 35.6 °F 71% 30.09 in 6.2 mi WSW 5.8 mph - N/A   Partly Cloudy
12:50 AM 42.8 °F 39.3 °F 35.6 °F 76% 30.09 in 6.2 mi West 5.8 mph - N/A   Partly Cloudy
1:20 AM 44.6 °F 43.1 °F 35.6 °F 71% 30.09 in 6.2 mi WNW 3.5 mph - N/A   Partly Cloudy
1:50 AM 42.8 °F 40.1 °F 35.6 °F 76% 30.09 in 6.2 mi South 4.6 mph - N/A   Partly Cloudy
2:20 AM 41.0 °F 38.0 °F 33.8 °F 76% 30.09 in 6.2 mi SW 4.6 mph - N/A   Partly Cloudy
2:50 AM 41.0 °F 39.0 °F 33.8 °F 76% 30.09 in 6.2 mi SSW 3.5 mph - N/A   Partly Cloudy
3:20 AM 39.2 °F 35.0 °F 33.8 °F 81% 30.12 in 6.2 mi SSW 5.8 mph - N/A   Partly Cloudy
3:50 AM 37.4 °F 32.1 °F 33.8 °F 87% 30.12 in 6.2 mi SSW 6.9 mph - N/A   Partly Cloudy
4:20 AM 37.4 °F 32.1 °F 33.8 °F 87% 30.12 in 6.2 mi SSW 6.9 mph - N/A   Partly Cloudy
4:50 AM 37.4 °F 32.8 °F 33.8 °F 87% 30.12 in 6.2 mi SSW 5.8 mph - N/A   Partly Cloudy
5:20 AM 37.4 °F 33.8 °F 33.8 °F 87% 30.12 in 6.2 mi SSW 4.6 mph - N/A   Partly Cloudy
5:50 AM 39.2 °F 34.2 °F 33.8 °F 81% 30.12 in 6.2 mi SSW 6.9 mph - N/A   Partly Cloudy
6:20 AM 39.2 °F 35.0 °F 33.8 °F 81% 30.15 in 6.2 mi SSW 5.8 mph - N/A   Partly Cloudy
6:50 AM 39.2 °F 34.2 °F 33.8 °F 81% 30.15 in - SSW 6.9 mph - N/A   Clear
7:20 AM 39.2 °F 34.2 °F 33.8 °F 81% 30.15 in - SW 6.9 mph - N/A   Clear
7:50 AM 39.2 °F - 33.8 °F 81% 30.15 in - Variable 2.3 mph - N/A   Clear
8:20 AM 41.0 °F 38.0 °F 33.8 °F 76% 30.18 in - South 4.6 mph - N/A   Clear
8:50 AM 42.8 °F 37.0 °F 35.6 °F 76% 30.18 in - SW 10.4 mph - N/A   Clear
9:20 AM 44.6 °F 36.9 °F 35.6 °F 71% 30.15 in - SW 18.4 mph - N/A   Clear
9:50 AM 46.4 °F 39.2 °F 35.6 °F 66% 30.15 in - SW 18.4 mph - N/A   Clear
10:20 AM 48.2 °F - 37.4 °F 66% 30.18 in - SW 17.3 mph - N/A   Clear
11:50 AM 53.6 °F - 41.0 °F 62% 30.15 in - SW 19.6 mph - N/A   Clear
12:20 PM 53.6 °F - 39.2 °F 58% 30.12 in - SW 23.0 mph - N/A   Clear
12:50 PM 55.4 °F - 39.2 °F 54% 30.12 in - SW 21.9 mph - N/A   Clear
1:20 PM 55.4 °F - 39.2 °F 54% 30.12 in - SW 23.0 mph - N/A   Clear
1:50 PM 55.4 °F - 39.2 °F 54% 30.09 in - SSW 19.6 mph 33.4 mph N/A   Clear
2:20 PM 57.2 °F - 41.0 °F 55% 30.09 in - SW 20.7 mph 33.4 mph N/A   Clear
2:50 PM 57.2 °F - 42.8 °F 59% 30.09 in 6.2 mi SW 20.7 mph - N/A   Partly Cloudy
3:20 PM 57.2 °F - 44.6 °F 63% 30.09 in 6.2 mi SW 19.6 mph - N/A   Partly Cloudy
3:50 PM 55.4 °F - 42.8 °F 63% 30.09 in 6.2 mi SW 17.3 mph - N/A   Partly Cloudy
4:20 PM 53.6 °F - 44.6 °F 72% 30.09 in 6.2 mi SW 18.4 mph - N/A   Mostly Cloudy
4:50 PM 53.6 °F - 44.6 °F 72% 30.12 in 6.2 mi SW 17.3 mph - N/A   Mostly Cloudy
5:20 PM 51.8 °F - 44.6 °F 76% 30.09 in 6.2 mi SW 13.8 mph - N/A   Mostly Cloudy
5:50 PM 51.8 °F - 44.6 °F 76% 30.12 in 6.2 mi SW 12.7 mph - N/A   Mostly Cloudy
6:20 PM 51.8 °F - 46.4 °F 82% 30.12 in 6.2 mi SW 12.7 mph - N/A   Mostly Cloudy
6:50 PM 51.8 °F - 46.4 °F 82% 30.12 in 6.2 mi SW 12.7 mph - N/A   Mostly Cloudy
7:20 PM 51.8 °F - 48.2 °F 88% 30.12 in 6.2 mi SW 11.5 mph - N/A   Light Drizzle
7:50 PM 51.8 °F - 48.2 °F 88% 30.12 in 6.2 mi SW 10.4 mph - N/A   Light Drizzle
8:20 PM 51.8 °F - 48.2 °F 88% 30.12 in 6.2 mi SW 13.8 mph - N/A   Light Drizzle
8:50 PM 51.8 °F - 48.2 °F 88% 30.12 in 6.2 mi SW 11.5 mph - N/A   Light Drizzle
9:20 PM 51.8 °F - 48.2 °F 88% 30.12 in 6.2 mi SW 8.1 mph - N/A   Mostly Cloudy
9:50 PM 51.8 °F - 48.2 °F 88% 30.12 in 6.2 mi SW 9.2 mph - N/A   Mostly Cloudy
10:20 PM 51.8 °F - 48.2 °F 88% 30.12 in 6.2 mi SSW 5.8 mph - N/A   Mostly Cloudy
10:50 PM 51.8 °F - 48.2 °F 88% 30.12 in 6.2 mi SW 8.1 mph - N/A   Scattered Clouds
11:20 PM 51.8 °F - 48.2 °F 88% 30.09 in 6.2 mi SW 8.1 mph - N/A   Scattered Clouds
11:50 PM 51.8 °F - 48.2 °F 88% 30.09 in 6.2 mi SW 9.2 mph - N/A   Scattered Clouds